SCP
0 0 0 0 0 0 0 0 0 0 0 0 0 0 0 0 0 0 0 0 0 0 0 0 0 0 0 0 0 0 0 0 0 0 0 0 0 0 0 0 0 0 0
0 0 0 0 0 0 0 0 0 0 0 0 0 0 0 0 0 0 0 0 0 0 0 0 0 0 0 0 0 0 0 0 0 0 0 0 0 0 0 0 0 0 0
0 0 0 0 0 0 0 0 0 0 0 0 0 0 0 0 0 0 0 0 0 0 0 0 0 0 0 0 0 0 0 0 0 0 0 0 0 0 0 0 0 0 0
0 0 0 0 0 0 0 0 0 0 0 0 0 0 0 0 0 0 0 0 0 0 0 0 0 0 0 0 0 0 0 0 0 0 0 0 0 0 0 0 0 0 0
0 0 0 0 0 0 0 0 0 0 0 0 0 0 0 0 0 0 0 0 0 0 0 0 0 0 0 0 0 0 0 0 0 0 0 0 0 0 0 0 0 0 0
0 0 0 0 0 0 0 0 0 0 0 0 0 0 -0 0 0 0 0 0 0 0 0 0 0 0 0 0 0 0 0 0 0 0 0 0 0 0 0 0 0 0 0
0 0 0 0 0 0 0 0 0 0 0 0 0 0 0 0 0 0 0 0 0 0 0 0 0 0 0 0 0 0 0 0 0 0 0 0 0 0 0 0 0 0 0
0 0 0 0 0 0 0 0 0 0 0 0 0 0 0 0 0 0 0 0 0 0 0 0 0 0 0 0 0 0 0 0 0 0 0 0 0 0 0 0 0 0 0
0 0 0 -0 -0 0 0 0 0 0 0 0 0 0 0 0 0 0 0 0 0 0 0 0 0 0 0 0 0 0 0 0 0 0 0 0 0 0 0 0 0 0 0
0 0 -0 -0 0 0 0 0 0 0 0 0 0 0 0 0 0 0 0 0 0 0 0 0 0 0 0 0 0 0 0 0 0 0 0 0 0 0 0 0 0 0 0
0 0 0 0 0 0 0 0 0 0 0 0 0 0 0 0 0 0 0 0 0 0 0 0 0 0 0 0 0 0 0 0 0 0 0 0 0 0 0 0 0 0 0
0 0 0 0 -0 0 0 0 0 0 0 0 0 0 0 0 0 0 0 0 0 0 0 0 0 0 0 0 0 0 0 0 0 0 0 0 0 0 0 0 0 0 0
-0 -0 -0 -0 -0 0 0 0 0 0 0 0 0 0 0 0 0 0 0 0 0 0 0 0 0 0 0 0 0 0 0 0 0 0 0 0 0 0 0 0 0 0 0
-0 -0 -0 0 0 0 0 0 0 0 0 0 0 0 0 0 0 0 0 0 0 0 0 0 0 0 0 0 0 0 0 0 0 0 0 0 0 0 0 0 0 0 0
0 -0 -0 0 0 0 0 0 0 0 0 0 0 0 0 0 0 0 0 0 0 0 0 0 0 0 0 0 0 0 0 0 0 0 0 0 0 0 0 0 0 0 0
0 0 0 0 0 0 0 0 0 0 0 0 0 0 0 0 0 0 0 0 0 0 0 0 0 0 0 0 0 0 0 0 0 0 0 0 0 0 0 0 0 0 0
0 0 0 0 0 0 0 0 0 0 0 0 0 0 0 0 0 0 0 0 0 0 0 0 0 0 0 0 0 0 0 0 0 0 0 0 0 0 0 0 0 0 0
0 0 0 0 0 0 0 0 0 0 0 0 0 0 0 0 0 0 0 0 0 0 0 0 0 0 0 0 0 0 0 0 0 0 0 0 0 0 0 0 0 0 0
0 0 0 0 0 0 0 0 0 0 0 0 0 0 0 0 0 0 0 0 0 0 0 0 0 0 0 0 0 0 0 0 0 0 0 0 0 0 0 0 0 0 0
0 0 0 0 0 0 0 0 0 0 0 0 0 0 0 0 0 0 0 0 0 0 0 0 0 0 0 0 0 0 0 0 0 0 0 0 0 0 0 0 0 0 0
0 0 0 0 0 0 0 0 0 0 0 0 0 0 0 0 0 0 0 0 0 0 0 0 0 0 0 0 0 0 0 0 0 0 0 0 0 0 0 0 0 0 0
0 0 0 0 0 0 0 0 0 0 0 0 0 0 0 0 0 0 0 0 0 0 0 0 0 0 0 0 0 0 0 0 0 0 0 0 0 0 0 0 0 0 0
0 0 0 0 0 0 0 0 0 0 0 0 0 0 0 0 0 0 0 0 0 0 0 0 0 0 0 0 0 0 0 0 0 0 0 0 0 0 0 0 0 0 0
0 0 0 0 0 0 0 0 0 0 0 0 0 0 0 0 0 0 0 0 0 0 0 0 0 0 0 0 0 0 0 0 0 0 0 0 0 0 0 0 0 0 0
0 0 0 0 0 0 0 0 0 0 0 0 0 0 0 0 0 0 0 0 0 0 0 0 0 0 0 0 0 0 0 0 0 0 0 0 0 0 0 0 0 0 0
0 0 0 0 0 0 0 0 0 0 0 0 0 0 0 0 0 0 0 0 0 0 0 0 0 0 0 0 0 0 0 0 0 0 0 0 0 0 0 0 0 0 0
Wind_Speed_500mb
27 28 29 30 32 33 34 35 38 41 45 53 60 63 62 66 71 77 85 90 95 101 106 106 110 111 111 108 110 113 112 109 112 109 98 104 99 84 93 90 92 97 100
23 23 24 25 27 30 33 35 38 41 41 44 47 54 61 65 66 69 77 85 90 98 103 102 105 108 112 115 111 114 115 114 114 115 106 107 105 93 97 94 87 90 97
23 21 22 25 29 32 35 38 40 43 44 45 48 50 52 57 63 66 70 75 80 90 96 99 107 102 110 119 111 110 115 116 120 125 112 102 101 97 99 101 92 87 94
23 23 25 28 32 36 39 43 47 49 51 52 52 53 55 56 57 60 64 68 74 81 86 95 102 105 110 109 110 116 116 118 113 121 119 107 108 98 98 101 101 101 104
28 25 25 28 32 37 43 47 51 53 54 57 58 59 60 59 58 58 58 64 72 77 80 85 94 102 108 109 110 114 102 114 118 106 105 114 112 99 107 118 113 113 109
30 25 27 32 37 43 50 55 58 60 62 64 65 66 66 65 62 59 59 65 68 75 87 91 91 96 102 104 106 109 114 115 111 112 107 124 130 109 97 123 122 109 105
30 26 31 40 48 53 59 64 67 69 73 75 76 77 80 78 73 70 67 69 75 78 79 86 95 100 97 101 105 104 103 104 109 127 118 111 114 108 113 115 125 96 115
31 33 40 51 57 62 68 72 76 76 80 83 85 87 89 91 88 82 80 80 82 84 83 84 88 96 96 95 98 103 109 106 108 108 126 126 130 129 121 124 126 111 107
35 41 50 60 68 72 78 83 82 82 85 86 90 93 95 98 98 95 86 88 90 90 92 93 91 96 92 90 91 98 107 112 107 111 109 119 133 123 144 111 101 104 76
40 52 61 69 76 85 90 92 90 89 94 95 99 98 99 104 100 97 89 88 92 92 93 96 101 97 97 84 81 92 106 110 104 107 107 112 110 103 112 127 95 92 85
50 63 74 79 87 94 97 97 98 100 102 103 107 108 107 106 106 102 92 85 82 91 96 100 98 99 98 93 78 82 99 96 99 99 107 108 98 99 95 88 71 81 97
67 79 87 94 98 99 101 103 101 100 102 105 108 114 114 112 111 110 104 97 87 87 94 96 99 99 100 91 88 90 89 94 94 96 101 96 90 86 77 73 59 79 80
85 94 101 103 104 104 102 102 102 101 106 111 110 113 120 115 114 111 107 101 93 88 88 91 96 99 97 95 92 89 84 94 95 89 90 84 83 88 80 73 68 69 71
98 102 103 105 105 102 101 104 106 107 108 111 114 115 117 120 119 116 111 102 90 92 92 92 93 96 91 91 90 89 89 88 87 84 82 79 81 83 85 81 78 72 69
97 102 105 106 108 111 110 110 111 113 108 115 118 114 119 127 125 113 112 113 104 96 93 98 99 99 97 89 81 80 82 79 82 85 82 82 89 94 87 87 81 80 74
104 107 109 112 113 115 118 127 120 121 114 110 113 109 120 121 122 116 110 110 102 92 91 98 96 97 96 91 84 78 77 79 82 84 81 88 103 100 92 83 80 75 71
99 104 106 109 112 113 114 112 124 117 103 108 100 92 98 115 114 115 115 109 104 95 97 102 93 94 98 93 88 83 81 81 85 85 89 102 106 97 97 90 82 74 72
94 98 100 104 104 103 99 97 93 96 105 112 100 90 96 94 99 107 105 95 105 97 96 103 100 91 97 96 90 86 83 82 87 91 101 111 104 104 97 90 82 75 72
88 92 92 96 98 98 95 89 84 90 99 119 134 128 108 91 88 91 92 95 104 99 90 95 97 93 99 98 92 88 91 89 94 100 108 107 103 100 94 85 76 67 60
86 88 89 91 88 82 93 102 99 96 101 105 113 124 116 82 84 86 84 84 88 94 96 97 90 92 96 94 94 94 94 96 101 104 101 100 100 94 87 83 73 68 62
88 93 92 95 97 96 95 95 97 96 98 101 110 116 95 88 99 98 91 91 88 90 92 87 90 91 91 94 96 95 94 98 101 105 103 100 94 91 80 75 74 65 59
84 87 88 90 90 90 90 88 90 92 95 99 105 103 89 84 95 99 92 90 92 97 96 85 86 87 91 93 94 93 96 103 107 104 102 99 92 82 79 77 69 62 56
75 79 82 84 84 83 83 83 85 87 91 91 92 94 91 91 88 83 81 84 85 83 82 77 81 84 84 84 90 96 106 109 105 104 104 95 87 85 77 69 63 60 59
74 73 74 75 76 81 86 86 84 86 89 92 94 93 93 89 85 92 89 89 82 82 74 71 72 77 79 85 93 97 100 97 96 92 89 91 87 78 70 61 60 60 58
65 64 66 69 72 75 73 73 74 76 79 78 82 85 90 83 79 76 74 69 66 61 60 60 66 71 79 86 88 84 87 89 87 87 85 80 76 69 63 62 62 60 56
60 60 59 58 59 63 62 58 58 58 58 58 57 56 53 50 48 47 45 44 45 49 55 59 64 69 71 71 76 81 82 84 83 76 72 71 68 67 64 62 60 58 54
Wind_Direction_500mb
265 272 276 280 286 291 294 296 299 302 300 291 286 283 282 281 279 277 279 282 281 278 275 273 277 279 273 269 267 257 251 247 247 257 252 255 263 259 260 252 249 248 247
265 272 281 289 293 295 295 297 300 301 304 309 309 300 291 287 284 278 277 277 278 279 279 278 275 269 269 274 269 262 256 250 246 250 252 250 254 260 254 252 246 245 242
258 268 282 292 299 302 302 304 306 307 307 305 304 307 308 300 292 289 282 277 275 275 278 276 275 275 270 264 264 265 259 254 249 246 248 248 248 249 251 247 244 242 242
253 266 281 294 307 313 312 309 307 308 308 307 307 307 306 306 308 303 297 289 282 278 275 276 277 277 274 267 266 262 262 255 254 242 241 242 241 245 244 242 245 238 238
257 269 287 304 315 320 320 317 313 310 309 307 306 305 305 307 311 314 312 300 292 285 280 276 275 275 276 274 270 269 260 257 256 244 237 235 235 239 242 247 248 240 239
256 267 286 303 316 323 324 323 317 311 311 311 311 310 307 305 309 312 313 305 299 291 287 283 277 275 273 272 273 270 271 273 260 246 238 236 236 239 246 244 240 230 228
257 275 297 310 314 317 316 318 318 314 310 309 309 308 307 308 312 314 314 307 302 298 295 291 285 279 275 274 277 278 273 269 274 259 252 239 247 243 252 245 237 252 235
255 280 298 304 309 313 313 316 315 312 309 308 305 304 302 304 308 312 314 309 304 300 299 297 291 284 278 276 278 276 274 276 275 268 265 255 255 258 263 256 248 243 234
263 288 298 303 307 309 309 312 311 309 306 304 300 299 299 297 302 307 312 308 304 302 301 299 299 294 286 275 276 280 281 279 283 281 277 276 264 258 262 241 242 236 219
291 296 299 301 303 305 306 307 306 304 302 299 297 297 298 296 300 305 308 305 302 301 298 297 298 298 299 289 274 274 278 281 283 283 289 279 267 244 244 249 247 242 211
290 290 292 296 300 301 302 301 301 301 299 298 297 298 298 299 298 301 302 300 301 300 297 297 297 298 297 297 278 268 270 277 280 281 283 273 268 247 237 234 239 230 217
288 290 294 296 297 297 297 298 298 298 298 298 300 300 300 300 300 299 300 303 306 299 296 295 296 297 293 289 286 278 275 277 273 272 271 267 259 240 222 217 218 207 207
294 295 295 295 295 296 295 296 296 297 297 297 297 296 295 297 295 295 296 300 302 298 295 292 292 293 292 285 282 278 275 270 269 263 261 258 244 233 213 195 195 201 201
293 293 294 295 296 295 295 294 293 293 292 292 293 293 294 292 290 292 294 296 297 295 296 293 288 286 285 282 279 276 271 267 263 260 250 243 221 199 191 189 183 178 178
292 292 292 292 293 293 292 293 291 291 289 290 288 288 288 286 286 289 290 290 293 293 296 294 290 285 287 284 280 277 275 264 252 244 241 228 200 189 185 182 188 185 178
290 290 290 291 290 290 291 291 289 288 288 286 286 284 284 282 286 286 285 286 287 289 287 286 285 281 280 279 274 271 267 256 243 239 229 213 194 185 181 178 179 176 171
290 291 291 291 291 291 291 292 292 291 286 283 279 273 272 281 285 285 287 284 284 282 277 278 274 269 270 270 268 265 259 248 239 230 223 203 188 187 183 175 171 169 171
292 291 290 291 292 292 291 289 286 286 288 286 283 279 277 275 274 276 276 278 275 271 267 270 268 261 263 263 259 257 246 236 227 217 206 193 188 184 177 169 168 168 169
295 293 293 292 292 292 292 292 286 282 281 285 292 290 288 285 281 277 276 269 266 265 263 264 264 260 260 256 252 247 240 229 217 207 196 192 187 180 173 167 168 169 171
297 296 298 297 295 286 283 285 286 283 282 282 283 286 291 288 283 279 277 269 263 263 264 264 260 255 255 248 244 239 229 215 205 198 192 188 181 176 170 168 168 170 168
304 300 297 294 293 293 291 288 288 285 281 280 281 287 285 284 281 277 274 271 269 269 274 273 263 253 248 243 234 225 216 206 200 194 189 179 173 170 171 170 166 166 170
301 298 296 294 295 294 293 293 290 287 285 283 287 290 287 279 276 274 275 275 269 269 273 273 261 248 242 238 227 218 209 201 193 186 176 170 170 171 167 165 166 167 171
308 305 302 298 297 298 298 297 295 293 292 292 292 291 291 286 285 285 280 273 272 271 273 267 251 242 231 224 219 214 205 195 185 177 170 168 167 165 167 167 165 167 173
316 312 309 307 305 302 298 297 298 299 297 295 292 291 288 289 280 281 279 273 267 268 261 249 237 234 222 209 202 196 196 186 176 171 167 163 163 167 164 160 167 170 169
320 316 313 308 302 301 302 296 293 290 288 285 281 282 285 285 283 277 262 253 247 244 234 224 220 216 212 204 195 191 181 171 166 164 163 164 162 159 156 165 166 166 168
334 326 320 316 313 309 306 304 302 302 302 302 299 295 289 279 267 251 238 226 222 216 208 202 198 197 194 188 176 165 160 157 158 160 160 159 152 154 162 165 164 164 164
Wind_Speed_850mb
27 28 29 30 32 33 34 35 38 41 45 53 60 63 62 66 71 77 85 90 95 101 106 106 110 111 111 108 110 113 112 109 112 109 98 104 99 84 93 90 92 97 100
23 23 24 25 27 30 33 35 38 41 41 44 47 54 61 65 66 69 77 85 90 98 103 102 105 108 112 115 111 114 115 114 114 115 106 107 105 93 97 94 87 90 97
23 21 22 25 29 32 35 38 40 43 44 45 48 50 52 57 63 66 70 75 80 90 96 99 107 102 110 119 111 110 115 116 120 125 112 102 101 97 99 101 92 87 94
23 23 25 28 32 36 39 43 47 49 51 52 52 53 55 56 57 60 64 68 74 81 86 95 102 105 110 109 110 116 116 118 113 121 119 107 108 98 98 101 101 101 104
28 25 25 28 32 37 43 47 51 53 54 57 58 59 60 59 58 58 58 64 72 77 80 85 94 102 108 109 110 114 102 114 118 106 105 114 112 99 107 118 113 113 109
30 25 27 32 37 43 50 55 58 60 62 64 65 66 66 65 62 59 59 65 68 75 87 91 91 96 102 104 106 109 114 115 111 112 107 124 130 109 97 123 122 109 105
30 26 31 40 48 53 59 64 67 69 73 75 76 77 80 78 73 70 67 69 75 78 79 86 95 100 97 101 105 104 103 104 109 127 118 111 114 108 113 115 125 96 115
31 33 40 51 57 62 68 72 76 76 80 83 85 87 89 91 88 82 80 80 82 84 83 84 88 96 96 95 98 103 109 106 108 108 126 126 130 129 121 124 126 111 107
35 41 50 60 68 72 78 83 82 82 85 86 90 93 95 98 98 95 86 88 90 90 92 93 91 96 92 90 91 98 107 112 107 111 109 119 133 123 144 111 101 104 76
40 52 61 69 76 85 90 92 90 89 94 95 99 98 99 104 100 97 89 88 92 92 93 96 101 97 97 84 81 92 106 110 104 107 107 112 110 103 112 127 95 92 85
50 63 74 79 87 94 97 97 98 100 102 103 107 108 107 106 106 102 92 85 82 91 96 100 98 99 98 93 78 82 99 96 99 99 107 108 98 99 95 88 71 81 97
67 79 87 94 98 99 101 103 101 100 102 105 108 114 114 112 111 110 104 97 87 87 94 96 99 99 100 91 88 90 89 94 94 96 101 96 90 86 77 73 59 79 80
85 94 101 103 104 104 102 102 102 101 106 111 110 113 120 115 114 111 107 101 93 88 88 91 96 99 97 95 92 89 84 94 95 89 90 84 83 88 80 73 68 69 71
98 102 103 105 105 102 101 104 106 107 108 111 114 115 117 120 119 116 111 102 90 92 92 92 93 96 91 91 90 89 89 88 87 84 82 79 81 83 85 81 78 72 69
97 102 105 106 108 111 110 110 111 113 108 115 118 114 119 127 125 113 112 113 104 96 93 98 99 99 97 89 81 80 82 79 82 85 82 82 89 94 87 87 81 80 74
104 107 109 112 113 115 118 127 120 121 114 110 113 109 120 121 122 116 110 110 102 92 91 98 96 97 96 91 84 78 77 79 82 84 81 88 103 100 92 83 80 75 71
99 104 106 109 112 113 114 112 124 117 103 108 100 92 98 115 114 115 115 109 104 95 97 102 93 94 98 93 88 83 81 81 85 85 89 102 106 97 97 90 82 74 72
94 98 100 104 104 103 99 97 93 96 105 112 100 90 96 94 99 107 105 95 105 97 96 103 100 91 97 96 90 86 83 82 87 91 101 111 104 104 97 90 82 75 72
88 92 92 96 98 98 95 89 84 90 99 119 134 128 108 91 88 91 92 95 104 99 90 95 97 93 99 98 92 88 91 89 94 100 108 107 103 100 94 85 76 67 60
86 88 89 91 88 82 93 102 99 96 101 105 113 124 116 82 84 86 84 84 88 94 96 97 90 92 96 94 94 94 94 96 101 104 101 100 100 94 87 83 73 68 62
88 93 92 95 97 96 95 95 97 96 98 101 110 116 95 88 99 98 91 91 88 90 92 87 90 91 91 94 96 95 94 98 101 105 103 100 94 91 80 75 74 65 59
84 87 88 90 90 90 90 88 90 92 95 99 105 103 89 84 95 99 92 90 92 97 96 85 86 87 91 93 94 93 96 103 107 104 102 99 92 82 79 77 69 62 56
75 79 82 84 84 83 83 83 85 87 91 91 92 94 91 91 88 83 81 84 85 83 82 77 81 84 84 84 90 96 106 109 105 104 104 95 87 85 77 69 63 60 59
74 73 74 75 76 81 86 86 84 86 89 92 94 93 93 89 85 92 89 89 82 82 74 71 72 77 79 85 93 97 100 97 96 92 89 91 87 78 70 61 60 60 58
65 64 66 69 72 75 73 73 74 76 79 78 82 85 90 83 79 76 74 69 66 61 60 60 66 71 79 86 88 84 87 89 87 87 85 80 76 69 63 62 62 60 56
60 60 59 58 59 63 62 58 58 58 58 58 57 56 53 50 48 47 45 44 45 49 55 59 64 69 71 71 76 81 82 84 83 76 72 71 68 67 64 62 60 58 54
Wind_Direction_850mb
265 272 276 280 286 291 294 296 299 302 300 291 286 283 282 281 279 277 279 282 281 278 275 273 277 279 273 269 267 257 251 247 247 257 252 255 263 259 260 252 249 248 247
265 272 281 289 293 295 295 297 300 301 304 309 309 300 291 287 284 278 277 277 278 279 279 278 275 269 269 274 269 262 256 250 246 250 252 250 254 260 254 252 246 245 242
258 268 282 292 299 302 302 304 306 307 307 305 304 307 308 300 292 289 282 277 275 275 278 276 275 275 270 264 264 265 259 254 249 246 248 248 248 249 251 247 244 242 242
253 266 281 294 307 313 312 309 307 308 308 307 307 307 306 306 308 303 297 289 282 278 275 276 277 277 274 267 266 262 262 255 254 242 241 242 241 245 244 242 245 238 238
257 269 287 304 315 320 320 317 313 310 309 307 306 305 305 307 311 314 312 300 292 285 280 276 275 275 276 274 270 269 260 257 256 244 237 235 235 239 242 247 248 240 239
256 267 286 303 316 323 324 323 317 311 311 311 311 310 307 305 309 312 313 305 299 291 287 283 277 275 273 272 273 270 271 273 260 246 238 236 236 239 246 244 240 230 228
257 275 297 310 314 317 316 318 318 314 310 309 309 308 307 308 312 314 314 307 302 298 295 291 285 279 275 274 277 278 273 269 274 259 252 239 247 243 252 245 237 252 235
255 280 298 304 309 313 313 316 315 312 309 308 305 304 302 304 308 312 314 309 304 300 299 297 291 284 278 276 278 276 274 276 275 268 265 255 255 258 263 256 248 243 234
263 288 298 303 307 309 309 312 311 309 306 304 300 299 299 297 302 307 312 308 304 302 301 299 299 294 286 275 276 280 281 279 283 281 277 276 264 258 262 241 242 236 219
291 296 299 301 303 305 306 307 306 304 302 299 297 297 298 296 300 305 308 305 302 301 298 297 298 298 299 289 274 274 278 281 283 283 289 279 267 244 244 249 247 242 211
290 290 292 296 300 301 302 301 301 301 299 298 297 298 298 299 298 301 302 300 301 300 297 297 297 298 297 297 278 268 270 277 280 281 283 273 268 247 237 234 239 230 217
288 290 294 296 297 297 297 298 298 298 298 298 300 300 300 300 300 299 300 303 306 299 296 295 296 297 293 289 286 278 275 277 273 272 271 267 259 240 222 217 218 207 207
294 295 295 295 295 296 295 296 296 297 297 297 297 296 295 297 295 295 296 300 302 298 295 292 292 293 292 285 282 278 275 270 269 263 261 258 244 233 213 195 195 201 201
293 293 294 295 296 295 295 294 293 293 292 292 293 293 294 292 290 292 294 296 297 295 296 293 288 286 285 282 279 276 271 267 263 260 250 243 221 199 191 189 183 178 178
292 292 292 292 293 293 292 293 291 291 289 290 288 288 288 286 286 289 290 290 293 293 296 294 290 285 287 284 280 277 275 264 252 244 241 228 200 189 185 182 188 185 178
290 290 290 291 290 290 291 291 289 288 288 286 286 284 284 282 286 286 285 286 287 289 287 286 285 281 280 279 274 271 267 256 243 239 229 213 194 185 181 178 179 176 171
290 291 291 291 291 291 291 292 292 291 286 283 279 273 272 281 285 285 287 284 284 282 277 278 274 269 270 270 268 265 259 248 239 230 223 203 188 187 183 175 171 169 171
292 291 290 291 292 292 291 289 286 286 288 286 283 279 277 275 274 276 276 278 275 271 267 270 268 261 263 263 259 257 246 236 227 217 206 193 188 184 177 169 168 168 169
295 293 293 292 292 292 292 292 286 282 281 285 292 290 288 285 281 277 276 269 266 265 263 264 264 260 260 256 252 247 240 229 217 207 196 192 187 180 173 167 168 169 171
297 296 298 297 295 286 283 285 286 283 282 282 283 286 291 288 283 279 277 269 263 263 264 264 260 255 255 248 244 239 229 215 205 198 192 188 181 176 170 168 168 170 168
304 300 297 294 293 293 291 288 288 285 281 280 281 287 285 284 281 277 274 271 269 269 274 273 263 253 248 243 234 225 216 206 200 194 189 179 173 170 171 170 166 166 170
301 298 296 294 295 294 293 293 290 287 285 283 287 290 287 279 276 274 275 275 269 269 273 273 261 248 242 238 227 218 209 201 193 186 176 170 170 171 167 165 166 167 171
308 305 302 298 297 298 298 297 295 293 292 292 292 291 291 286 285 285 280 273 272 271 273 267 251 242 231 224 219 214 205 195 185 177 170 168 167 165 167 167 165 167 173
316 312 309 307 305 302 298 297 298 299 297 295 292 291 288 289 280 281 279 273 267 268 261 249 237 234 222 209 202 196 196 186 176 171 167 163 163 167 164 160 167 170 169
320 316 313 308 302 301 302 296 293 290 288 285 281 282 285 285 283 277 262 253 247 244 234 224 220 216 212 204 195 191 181 171 166 164 163 164 162 159 156 165 166 166 168
334 326 320 316 313 309 306 304 302 302 302 302 299 295 289 279 267 251 238 226 222 216 208 202 198 197 194 188 176 165 160 157 158 160 160 159 152 154 162 165 164 164 164